• In Belarus
  • List of Countries
  • For 7 days
  • Water Temperature
  • Satellite Maps
  • Weather Map
  • Weather Widgets
  • user-avatar
    Login

    Hourly Weather Ghazni

    Today, 26 March, Tuesday

    Time Temperature Precipitation Wind Pressure Humidity
    00:00 +2°C° 0 mm 2 mps 586 mmHg 47%
    01:00 +2°C° 0 mm 2 mps 585 mmHg 45%
    02:00 +2°C° 0 mm 2 mps 585 mmHg 43%
    03:00 +2°C° 0 mm 2 mps 585 mmHg 43%
    04:00 +2°C° 0 mm 2 mps 585 mmHg 42%
    05:00 +1°C° 0 mm 2 mps 585 mmHg 43%
    06:00 +2°C° 0 mm 2 mps 585 mmHg 45%
    07:00 +3°C° 0 mm 2 mps 586 mmHg 46%
    08:00 +3°C° 0 mm 2 mps 586 mmHg 48%
    09:00 +6°C° 0 mm 1 mps 587 mmHg 55%
    10:00 +7°C° 0 mm 1 mps 587 mmHg 63%
    11:00 +8°C° 0 mm 1 mps 588 mmHg 70%
    12:00 +9°C° 0 mm 1 mps 588 mmHg 69%
    13:00 +10°C° 0 mm 1 mps 588 mmHg 67%
    14:00 +11°C° 0 mm 1 mps 588 mmHg 65%
    15:00 +11°C° 0 mm 1 mps 588 mmHg 63%
    16:00 +11°C° 0 mm 1 mps 587 mmHg 61%
    17:00 +11°C° 0 mm 1 mps 587 mmHg 59%
    18:00 +10°C° 0 mm 1 mps 587 mmHg 60%
    19:00 +9°C° 0 mm 1 mps 587 mmHg 60%
    20:00 +8°C° 0 mm 1 mps 587 mmHg 61%
    21:00 +8°C° 0 mm 1 mps 587 mmHg 61%
    22:00 +6°C° 0 mm 2 mps 587 mmHg 61%
    23:00 +6°C° 0 mm 2 mps 587 mmHg 61%

    Tomorrow, 27 March, Wednesday

    Time Temperature Precipitation Wind Pressure Humidity
    00:00 +6°C° 0 mm 2 mps 587 mmHg 63%
    01:00 +5°C° 0 mm 2 mps 587 mmHg 64%
    02:00 +6°C° 0 mm 1 mps 586 mmHg 65%
    03:00 +6°C° 0 mm 1 mps 586 mmHg 67%
    04:00 +6°C° 0 mm 1 mps 586 mmHg 69%
    05:00 +6°C° 0 mm 1 mps 586 mmHg 70%
    06:00 +6°C° 0 mm 1 mps 586 mmHg 70%
    07:00 +7°C° 0 mm 1 mps 587 mmHg 70%
    08:00 +8°C° 0 mm 1 mps 587 mmHg 70%
    09:00 +9°C° 0 mm 1 mps 588 mmHg 70%
    10:00 +10°C° 0 mm 1 mps 588 mmHg 70%
    11:00 +10°C° 0 mm 0 mps 589 mmHg 70%
    12:00 +12°C° 0 mm 1 mps 589 mmHg 68%
    13:00 +13°C° 0 mm 2 mps 589 mmHg 66%
    14:00 +14°C° 0 mm 2 mps 589 mmHg 64%
    15:00 +14°C° 0 mm 2 mps 589 mmHg 65%
    16:00 +14°C° 0 mm 2 mps 589 mmHg 65%
    17:00 +14°C° 0 mm 2 mps 589 mmHg 66%
    18:00 +12°C° 0 mm 2 mps 588 mmHg 69%
    19:00 +10°C° 0 mm 2 mps 588 mmHg 73%
    20:00 +8°C° 0 mm 3 mps 588 mmHg 76%
    21:00 +8°C° 0 mm 2 mps 588 mmHg 75%
    22:00 +7°C° 0 mm 2 mps 588 mmHg 75%
    23:00 +7°C° 0 mm 2 mps 588 mmHg 74%

    Day after tomorrow, 28 March, Thursday

    Time Temperature Precipitation Wind Pressure Humidity
    00:00 +7°C° 0 mm 2 mps 587 mmHg 73%
    01:00 +7°C° 0 mm 2 mps 587 mmHg 73%
    02:00 +6°C° 0 mm 2 mps 587 mmHg 73%
    03:00 +6°C° 0 mm 2 mps 586 mmHg 73%
    04:00 +6°C° 0 mm 2 mps 586 mmHg 74%
    05:00 +5°C° 0 mm 2 mps 586 mmHg 75%
    06:00 +6°C° 0 mm 2 mps 586 mmHg 73%
    07:00 +7°C° 0 mm 1 mps 587 mmHg 72%
    08:00 +8°C° 0 mm 1 mps 587 mmHg 70%
    09:00 +10°C° 0 mm 1 mps 588 mmHg 66%
    10:00 +11°C° 0 mm 1 mps 589 mmHg 62%
    11:00 +13°C° 0 mm 1 mps 590 mmHg 58%
    12:00 +14°C° 0 mm 1 mps 590 mmHg 54%
    13:00 +15°C° 0 mm 2 mps 590 mmHg 51%
    14:00 +16°C° 0 mm 3 mps 589 mmHg 48%
    15:00 +16°C° 0 mm 2 mps 589 mmHg 47%
    16:00 +16°C° 0 mm 2 mps 589 mmHg 46%
    17:00 +16°C° 0 mm 2 mps 589 mmHg 45%
    18:00 +15°C° 0 mm 2 mps 588 mmHg 50%
    19:00 +13°C° 0 mm 2 mps 588 mmHg 54%
    20:00 +10°C° 0 mm 2 mps 587 mmHg 59%
    21:00 +10°C° 0 mm 2 mps 587 mmHg 59%
    22:00 +10°C° 0 mm 2 mps 587 mmHg 60%
    23:00 +9°C° 0 mm 2 mps 587 mmHg 61%

    29 March, Friday

    Time Temperature Precipitation Wind Pressure Humidity
    00:00 +9°C° 0.1 mm 2 mps 586 mmHg 63%
    01:00 +8°C° 0.1 mm 2 mps 586 mmHg 65%
    02:00 +9°C° 0.1 mm 1 mps 586 mmHg 67%
    03:00 +9°C° 0.3 mm 1 mps 585 mmHg 72%
    04:00 +8°C° 0.3 mm 1 mps 585 mmHg 76%
    05:00 +8°C° 0.3 mm 1 mps 584 mmHg 80%
    06:00 +8°C° 0.1 mm 1 mps 585 mmHg 80%
    07:00 +9°C° 0.1 mm 1 mps 585 mmHg 80%
    08:00 +9°C° 0.1 mm 1 mps 586 mmHg 80%
    09:00 +10°C° 0 mm 1 mps 586 mmHg 75%
    10:00 +10°C° 0 mm 2 mps 587 mmHg 71%
    11:00 +12°C° 0 mm 3 mps 587 mmHg 66%
    12:00 +13°C° 0 mm 5 mps 587 mmHg 57%
    13:00 +14°C° 0 mm 6 mps 587 mmHg 48%
    14:00 +16°C° 0 mm 8 mps 587 mmHg 40%
    15:00 +15°C° 0 mm 9 mps 587 mmHg 37%
    16:00 +15°C° 0 mm 9 mps 587 mmHg 34%
    17:00 +14°C° 0 mm 10 mps 587 mmHg 31%
    18:00 +12°C° 0 mm 8 mps 586 mmHg 34%
    19:00 +11°C° 0 mm 7 mps 586 mmHg 36%
    20:00 +9°C° 0 mm 6 mps 586 mmHg 39%
    21:00 +8°C° 0 mm 5 mps 586 mmHg 41%
    22:00 +7°C° 0 mm 5 mps 586 mmHg 43%
    23:00 +6°C° 0 mm 4 mps 586 mmHg 45%

    30 March, Saturday

    Time Temperature Precipitation Wind Pressure Humidity
    00:00 +6°C° 0 mm 4 mps 585 mmHg 46%
    01:00 +5°C° 0 mm 3 mps 585 mmHg 47%
    02:00 +5°C° 0 mm 2 mps 584 mmHg 48%
    03:00 +4°C° 0 mm 2 mps 584 mmHg 48%
    04:00 +4°C° 0 mm 2 mps 584 mmHg 48%
    05:00 +3°C° 0 mm 2 mps 584 mmHg 48%
    06:00 +4°C° 0 mm 2 mps 585 mmHg 46%
    07:00 +5°C° 0 mm 2 mps 585 mmHg 44%
    08:00 +5°C° 0 mm 2 mps 586 mmHg 41%
    09:00 +7°C° 0 mm 2 mps 587 mmHg 38%
    10:00 +9°C° 0 mm 1 mps 587 mmHg 35%
    11:00 +11°C° 0 mm 1 mps 588 mmHg 32%
    12:00 +12°C° 0 mm 1 mps 588 mmHg 30%
    13:00 +11°C° 0 mm 0 mps 587 mmHg 27%
    14:00 +12°C° 0 mm 0 mps 587 mmHg 24%
    15:00 +13°C° 0 mm 0 mps 587 mmHg 23%
    16:00 +13°C° 0 mm 0 mps 587 mmHg 22%
    17:00 +13°C° 0 mm 0 mps 587 mmHg 21%
    18:00 +13°C° 0 mm 1 mps 587 mmHg 25%
    19:00 +12°C° 0 mm 1 mps 587 mmHg 29%
    20:00 +10°C° 0 mm 2 mps 587 mmHg 32%
    21:00 +9°C° 0 mm 2 mps 587 mmHg 34%
    22:00 +8°C° 0 mm 2 mps 587 mmHg 35%
    23:00 +7°C° 0 mm 3 mps 587 mmHg 36%

    31 March, Sunday

    Time Temperature Precipitation Wind Pressure Humidity
    00:00 +7°C° 0 mm 3 mps 586 mmHg 36%
    01:00 +5°C° 0 mm 3 mps 586 mmHg 37%
    02:00 +5°C° 0 mm 3 mps 586 mmHg 37%
    03:00 +4°C° 0 mm 3 mps 585 mmHg 38%
    04:00 +4°C° 0 mm 3 mps 585 mmHg 38%
    05:00 +3°C° 0 mm 3 mps 585 mmHg 39%
    06:00 +4°C° 0 mm 3 mps 585 mmHg 38%
    07:00 +6°C° 0 mm 2 mps 586 mmHg 37%
    08:00 +6°C° 0 mm 2 mps 587 mmHg 36%
    09:00 +8°C° 0 mm 2 mps 587 mmHg 32%
    10:00 +11°C° 0 mm 1 mps 588 mmHg 28%
    11:00 +13°C° 0 mm 1 mps 588 mmHg 24%
    12:00 +14°C° 0 mm 1 mps 588 mmHg 23%
    13:00 +15°C° 0 mm 1 mps 588 mmHg 22%
    14:00 +16°C° 0 mm 1 mps 588 mmHg 21%
    15:00 +16°C° 0 mm 1 mps 588 mmHg 20%
    16:00 +16°C° 0 mm 2 mps 588 mmHg 20%
    17:00 +16°C° 0 mm 2 mps 588 mmHg 20%
    18:00 +14°C° 0 mm 3 mps 588 mmHg 25%
    19:00 +12°C° 0 mm 3 mps 588 mmHg 29%
    20:00 +11°C° 0 mm 3 mps 588 mmHg 34%
    21:00 +10°C° 0 mm 3 mps 588 mmHg 35%
    22:00 +9°C° 0 mm 3 mps 587 mmHg 36%
    23:00 +8°C° 0 mm 3 mps 587 mmHg 37%
    Show more